FW8731 Weather Reports


Display with metric or nautical units.
time (UTC)temp
F
wind
direction
speed
MPH
gust
MPH
rain 1hr
in
rain 24hr
in
rain mn
in
humidity
%
barometer
mb
20260505223046 76 228 3.0 8.0 0.00 0.00 0.00 48 1012.7
20260505221550 76 186 2.0 10.0 0.00 0.00 0.00 50 1013.0
20260505220052 75 203 3.0 10.0 0.00 0.00 0.00 48 1013.2
20260505214541 75 175 4.0 14.0 0.00 0.00 0.00 46 1013.4
20260505213037 74 190 2.0 9.0 0.00 0.00 0.00 46 1013.5
20260505211554 74 221 3.0 11.0 0.00 0.00 0.00 46 1013.6
20260505210042 73 186 4.0 13.0 0.00 0.00 0.00 47 1013.9
20260505204542 72 209 3.0 9.0 0.00 0.00 0.00 50 1014.0
20260505203039 71 194 2.0 8.0 0.00 0.00 0.00 55 1014.1
20260505201537 70 211 2.0 7.0 0.00 0.00 0.00 57 1014.4
20260505200048 69 234 2.0 7.0 0.00 0.00 0.00 59 1014.5
20260505194545 68 207 3.0 6.0 0.00 0.00 0.00 60 1014.7
20260505193057 67 113 0.0 7.0 0.00 0.00 0.00 62 1014.9
20260505191544 66 198 1.0 6.0 0.00 0.00 0.00 62 1015.2
20260505190048 66 200 1.0 4.0 0.00 0.00 0.00 63 1015.3
20260505184536 64 241 1.0 7.0 0.00 0.00 0.00 66 1015.4
20260505183043 64 180 2.0 6.0 0.00 0.00 0.00 66 1015.5
20260505181549 64 155 1.0 4.0 0.00 0.00 0.00 66 1015.6
20260505180039 63 38 1.0 4.0 0.00 0.00 0.00 66 1015.6
20260505174538 62 163 1.0 4.0 0.00 0.00 0.00 69 1015.7
20260505173043 60 288 0.0 3.0 0.00 0.00 0.00 72 1015.9
20260505171543 60 281 0.0 3.0 0.00 0.00 0.00 73 1015.8
20260505170043 59 281 1.0 3.0 0.00 0.00 0.00 75 1015.9
20260505164546 59 0 0.0 2.0 0.00 0.00 0.00 76 1016.0
20260505163036 58 281 0.0 3.0 0.00 0.00 0.00 78 1016.0
20260505161543 57 0 0.0 2.0 0.00 0.00 0.00 80 1016.0
20260505153042 55 0 0.0 2.0 0.00 0.00 0.00 83 1015.9
20260505151539 55 0 0.0 1.0 0.00 0.00 0.00 85 1015.9
20260505124547 52 0 0.0 1.0 0.00 0.00 0.00 89 1014.8
20260505123045 52 0 0.0 1.0 0.00 0.00 0.00 90 1014.7
20260505121544 51 0 0.0 1.0 0.00 0.00 0.00 90 1014.6
20260505120054 51 0 0.0 0.0 0.00 0.00 0.00 91 1014.6
20260505114542 51 0 0.0 1.0 0.00 0.00 0.00 91 1014.5
20260505113042 50 0 0.0 1.0 0.00 0.00 0.00 91 1014.5
20260505111545 50 177 0.0 1.0 0.00 0.00 0.00 91 1014.5
20260505101548 50 0 0.0 1.0 0.00 0.00 0.00 89 1014.1
20260505100046 51 0 0.0 0.0 0.00 0.00 0.00 88 1014.1
20260505094544 51 0 0.0 0.0 0.00 0.00 0.00 88 1014.2
20260505093044 52 176 0.0 1.0 0.00 0.00 0.00 87 1014.3
20260505091541 52 0 0.0 2.0 0.00 0.00 0.00 86 1014.4
20260505090053 53 0 0.0 1.0 0.00 0.00 0.00 85 1014.1
20260505084550 54 0 0.0 4.0 0.00 0.00 0.00 84 1014.1
20260505083056 55 0 0.0 2.0 0.00 0.00 0.00 82 1014.1
20260505081555 56 0 1.0 2.0 0.00 0.00 0.00 81 1014.2
20260505080048 56 0 0.0 2.0 0.00 0.00 0.00 80 1014.1
20260505074542 56 0 0.0 4.0 0.00 0.00 0.00 80 1014.1
20260505073044 57 105 0.0 3.0 0.00 0.00 0.00 79 1014.1
20260505071546 57 157 2.0 5.0 0.00 0.00 0.00 78 1014.0
20260505070037 57 120 1.0 3.0 0.00 0.00 0.00 78 1013.8
20260505064537 58 110 0.0 3.0 0.00 0.00 0.00 77 1013.6
20260505063042 58 0 0.0 4.0 0.00 0.00 0.00 77 1013.6
20260505061549 58 126 1.0 7.0 0.00 0.00 0.00 76 1013.5
20260505060040 59 0 1.0 5.0 0.00 0.00 0.00 75 1013.2
20260505054543 59 112 2.0 8.0 0.00 0.00 0.00 75 1013.2
20260505053044 60 135 2.0 8.0 0.00 0.00 0.00 74 1013.0
20260505051543 60 152 2.0 11.0 0.00 0.00 0.00 73 1013.0
20260505041547 64 123 3.0 9.0 0.00 0.00 0.00 68 1011.8
20260505040045 65 96 3.0 8.0 0.00 0.00 0.00 67 1011.5
20260505034542 66 120 1.0 4.0 0.00 0.00 0.00 65 1011.2
20260505033045 67 0 2.0 6.0 0.00 0.00 0.00 65 1011.1
20260505031551 68 155 1.0 5.0 0.00 0.00 0.00 63 1010.8
20260505030046 69 84 1.0 7.0 0.00 0.00 0.00 63 1010.4
20260505024550 70 184 1.0 6.0 0.00 0.00 0.00 59 1010.1
20260505023046 71 0 1.0 5.0 0.00 0.00 0.00 57 1010.0
20260505021543 73 121 3.0 7.0 0.00 0.00 0.00 55 1009.9
20260505020043 76 259 3.0 8.0 0.00 0.00 0.00 48 1009.7
20260505014558 78 305 3.0 8.0 0.00 0.00 0.00 45 1009.7
20260505013042 79 267 2.0 6.0 0.00 0.00 0.00 45 1009.7
20260505011548 81 360 1.0 5.0 0.00 0.00 0.00 43 1009.6
20260505010049 81 316 1.0 4.0 0.00 0.00 0.00 41 1009.3
20260505004537 81 350 1.0 8.0 0.00 0.09 0.00 42 1009.2
20260505003035 81 209 2.0 8.0 0.00 0.09 0.00 42 1009.1
20260505001545 81 194 4.0 12.0 0.00 0.09 0.00 40 1008.8
20260505000044 81 306 4.0 11.0 0.00 0.09 0.00 40 1008.9
20260504234547 80 205 3.0 10.0 0.00 0.14 0.00 45 1008.9
20260504233046 81 265 4.0 9.0 0.00 0.14 0.00 42 1009.1
20260504231535 80 260 3.0 11.0 0.00 0.14 0.00 46 1009.0
20260504230046 78 203 4.0 15.0 0.00 0.14 0.00 54 1009.1
20260504224546 78 219 6.0 14.0 0.00 0.14 0.00 54 1009.3